Location: Étavigny
(49.1201°N, 2.9800°E)
Time: 21:11:27
(UTC+00:00)

Cosmos 1844 - Visible Passes

Search period start: 02 December 2024 00:00
Search period end: 12 December 2024 00:00
Orbit: 822 x 867 km, 70.9° (Epoch: 01 December)

Date Brightness Start Highest point End Pass type
(mag) Time Alt. Az. Time Alt. Az. Time Alt. Az.
02 Dec 4.7 16:34:18 10° WSW 16:39:36 42° NW 16:44:59 10° NNE visible
02 Dec 6.1 18:22:51 10° NW 18:25:22 13° NNW 18:27:53 10° N visible
03 Dec 4.7 16:19:58 10° SW 16:25:17 43° NW 16:30:42 10° NNE visible
03 Dec 6.0 18:08:24 10° NW 18:11:01 13° NNW 18:13:38 10° N visible
04 Dec 6.0 17:53:57 10° WNW 17:56:39 13° NNW 17:59:23 10° N visible
05 Dec 6.0 17:39:30 10° WNW 17:42:19 14° NNW 17:45:08 10° N visible
06 Dec 6.0 17:25:03 10° WNW 17:27:57 14° NNW 17:30:52 10° N visible
07 Dec 5.9 17:10:36 10° WNW 17:13:36 14° NNW 17:16:36 10° N visible
08 Dec 5.9 16:56:10 10° WNW 16:59:14 15° NNW 17:02:20 10° N visible
09 Dec 5.9 16:41:43 10° WNW 16:44:53 15° NNW 16:48:04 10° N visible
10 Dec 5.9 16:27:17 10° WNW 16:30:32 15° NNW 16:33:47 10° N visible
